Air Resources Laboratory banner image
Air Resources Laboratory web site National Oceanic and Atmospheric Administration (NOAA)

nd roundup


Office: BIS

ASUS43 KBIS 250702
RWRBIS

NWR BROADCAST TEXT
NATIONAL WEATHER SERVICE BISMARCK ND
100 AM CST SUN FEB 25 2018

NOTE: "FAIR" INDICATES FEW OR NO CLOUDS BELOW 12,000 FEET WITH NO
SIGNIFICANT WEATHER AND/OR OBSTRUCTIONS TO VISIBILITY.


CITY           SKY/WX    TMP DP  RH WIND       PRES   REMARKS
WILLISTON      MOCLDY    23  17  78 W14       29.60R WCI  11
MINOT          CLOUDY    22  17  81 W14       29.51F WCI   9
MINOT AFB      FLURRIES  21  18  86 W10         N/A  WCI  10
BISMARCK       FAIR      14   9  80 W12       29.58S WCI   0
DICKINSON      CLOUDY    18  14  84 W17       29.58R WCI   3
GARRISON         N/A     20  17  88 W14       29.54S WCI   7
HETTINGER ARPT CLEAR     11   5  77 W16       29.63R WCI  -6
JAMESTOWN      FAIR       5   2  87 W3        29.52F
CARRINGTON     FAIR       7   3  85 W12       29.54S WCI  -9
LINTON           N/A     12   5  73 W12       29.61S WCI  -2
OAKES            N/A      7   5  92 W9        29.57S WCI  -7
TIOGA          FAIR      18  18 100 W18       29.56R WCI   2
$$

CITY           SKY/WX    TMP DP  RH WIND       PRES   REMARKS
GRAND FORKS    CLOUDY    14  12  92 W6        29.53F WCI   5
GRAND FORKS AF CLOUDY    16  13  87 CALM      29.52F
DEVILS LAKE    MOCLDY     7   4  87 SW6       29.51F WCI  -3
FARGO          CLOUDY    13  12  96 W12       29.54S WCI  -1
CANDO          PTSUNNY    5   5 100 W8        29.53S FOG     WCI  -8
CAVALIER         N/A     16  16 100 S5        29.53F WCI   9
GWINNER          N/A      9   7  92 W13       29.56S WCI  -7
ROLLA          FAIR       3   1  92 SW6       29.48F WCI  -8
WALHALLA       FLURRIES  16  16 100 SW5       29.52F WCI   9
$$

CITY           SKY/WX    TMP DP  RH WIND       PRES   REMARKS
ABERDEEN       CLEAR     -1  -4  87 SW9       29.62F WCI -16
MOBRIDGE       CLEAR      9   3  77 CALM      29.60R
BUFFALO          N/A     14   5  67 W12       29.59R WCI   0
RAPID CITY     PTCLDY    12   2  64 S6        29.70S WCI   3
GLASGOW        CLEAR     13   9  84 W9        29.66S WCI   1
SIDNEY         CLOUDY    24  19  81 W23G31    29.62S WCI   9
WOLF POINT     CLOUDY    21  16  81 W12       29.67R WCI   9
GLENDIVE       PTCLDY    17  14  88 W13       29.67R WCI   4
MILES CITY     PTCLDY     9   4  80 W6        29.73R WCI  -1
BAKER          CLOUDY    17  12  80 W17       29.67R WCI   1
$$

CITY           SKY/WX    TMP DP  RH WIND       PRES   REMARKS
BILLINGS       PTCLDY    24  17  74 SW12      29.73R WCI  13
GREAT FALLS    CLEAR     17   6  62 SW17      29.68F WCI   1
$$



ASUS43 KBIS 250702
RWRND

NORTH DAKOTA REGIONAL WEATHER ROUNDUP
NATIONAL WEATHER SERVICE BISMARCK ND
100 AM CST SUN FEB 25 2018

NOTE: "FAIR" INDICATES FEW OR NO CLOUDS BELOW 12,000 FEET WITH NO
SIGNIFICANT WEATHER AND/OR OBSTRUCTIONS TO VISIBILITY.


NDZ001>003-009>011-017-250800-
NORTHWEST NORTH DAKOTA

CITY           SKY/WX    TMP DP  RH WIND       PRES   REMARKS
WILLISTON      MOCLDY    23  17  78 W14       29.60R WCI  11
MINOT          CLOUDY    22  17  81 W14       29.51F WCI   9
MINOT AFB      FLURRIES  21  18  86 W10         N/A  WCI  10
$$

NDZ018>021-031>035-040>046-250800-
SOUTHWEST NORTH DAKOTA

CITY           SKY/WX    TMP DP  RH WIND       PRES   REMARKS
BISMARCK       CLEAR     14   9  80 W12       29.58S WCI   0
DICKINSON      CLOUDY    18  14  84 W17       29.58R WCI   3
GARRISON         N/A     20  17  88 W14       29.54S WCI   7
HETTINGER ARPT CLEAR     11   5  77 W16       29.63R WCI  -6
$$

NDZ004>008-012>016-024-026-027-054-250800-
NORTHEAST NORTH DAKOTA

CITY           SKY/WX    TMP DP  RH WIND       PRES   REMARKS
GRAND FORKS    CLOUDY    14  12  92 W6        29.53F WCI   5
GRND FRKS AFB  CLOUDY    16  13  87 CALM      29.52F
DEVILS LAKE    MOCLDY     7   4  87 SW6       29.51F WCI  -3
$$

NDZ022-023-025-028>030-036>039-047>053-250800-
SOUTHEAST NORTH DAKOTA

CITY           SKY/WX    TMP DP  RH WIND       PRES   REMARKS
FARGO          CLOUDY    13  12  96 W12       29.54S WCI  -1
JAMESTOWN      CLEAR      5   2  87 W3        29.52F
$$



ASUS43 KBIS 250710
RWRND

NORTH DAKOTA REGIONAL WEATHER ROUNDUP
NATIONAL WEATHER SERVICE BISMARCK ND
100 AM CST SUN FEB 25 2018

NOTE: "FAIR" INDICATES FEW OR NO CLOUDS BELOW 12,000 FEET WITH NO
SIGNIFICANT WEATHER AND/OR OBSTRUCTIONS TO VISIBILITY.


NDZ001>003-009>011-017-250800-
NORTHWEST NORTH DAKOTA

CITY           SKY/WX    TMP DP  RH WIND       PRES   REMARKS
WILLISTON      MOCLDY    23  17  78 W14       29.60R WCI  11
MINOT          CLOUDY    22  17  81 W14       29.51F WCI   9
MINOT AFB      MIX PCPN  21  18  86 W12         N/A  WCI   9
$$

NDZ018>021-031>035-040>046-250800-
SOUTHWEST NORTH DAKOTA

CITY           SKY/WX    TMP DP  RH WIND       PRES   REMARKS
BISMARCK       CLEAR     14   9  80 W12       29.58S WCI   0
DICKINSON      CLOUDY    18  14  84 W17       29.58R WCI   3
GARRISON         N/A     20  17  88 W14       29.54S WCI   7
HETTINGER ARPT CLEAR     11   5  77 W16       29.63R WCI  -6
$$

NDZ004>008-012>016-024-026-027-054-250800-
NORTHEAST NORTH DAKOTA

CITY           SKY/WX    TMP DP  RH WIND       PRES   REMARKS
GRAND FORKS    CLOUDY    14  12  92 W6        29.53F WCI   5
GRND FRKS AFB  CLOUDY    16  13  87 CALM      29.52F
DEVILS LAKE    MOCLDY     7   4  87 SW6       29.51F WCI  -3
$$

NDZ022-023-025-028>030-036>039-047>053-250800-
SOUTHEAST NORTH DAKOTA

CITY           SKY/WX    TMP DP  RH WIND       PRES   REMARKS
FARGO          CLOUDY    13  12  96 W12       29.54S WCI  -1
JAMESTOWN      CLEAR      5   2  87 W3        29.52F
$$



ASUS43 KBIS 250710
RWRBIS

NWR BROADCAST TEXT
NATIONAL WEATHER SERVICE BISMARCK ND
100 AM CST SUN FEB 25 2018

NOTE: "FAIR" INDICATES FEW OR NO CLOUDS BELOW 12,000 FEET WITH NO
SIGNIFICANT WEATHER AND/OR OBSTRUCTIONS TO VISIBILITY.


CITY           SKY/WX    TMP DP  RH WIND       PRES   REMARKS
WILLISTON      MOCLDY    23  17  78 W14       29.60R WCI  11
MINOT          CLOUDY    22  17  81 W14       29.51F WCI   9
MINOT AFB      MIX PCPN  21  18  86 W12         N/A  WCI   9
BISMARCK       FAIR      14   9  80 W12       29.58S WCI   0
DICKINSON      CLOUDY    18  14  84 W17       29.58R WCI   3
GARRISON         N/A     20  17  88 W14       29.54S WCI   7
HETTINGER ARPT CLEAR     11   5  77 W16       29.63R WCI  -6
JAMESTOWN      FAIR       5   2  87 W3        29.52F
CARRINGTON     FAIR       7   3  85 W12       29.54S WCI  -9
LINTON           N/A     12   5  73 W12       29.61S WCI  -2
OAKES            N/A      7   5  92 W9        29.57S WCI  -7
TIOGA          FAIR      18  18 100 W18       29.56R WCI   2
$$

CITY           SKY/WX    TMP DP  RH WIND       PRES   REMARKS
GRAND FORKS    CLOUDY    14  12  92 W6        29.53F WCI   5
GRAND FORKS AF CLOUDY    16  13  87 CALM      29.52F
DEVILS LAKE    MOCLDY     7   4  87 SW6       29.51F WCI  -3
FARGO          CLOUDY    13  12  96 W12       29.54S WCI  -1
CANDO          PTSUNNY    5   5 100 W8        29.53S FOG     WCI  -8
CAVALIER         N/A     16  16 100 S5        29.53F WCI   9
GWINNER          N/A      9   7  92 W13       29.56S WCI  -7
ROLLA          FAIR       3   1  92 SW6       29.48F WCI  -8
WALHALLA       FLURRIES  16  16 100 SW5       29.52F WCI   9
$$

CITY           SKY/WX    TMP DP  RH WIND       PRES   REMARKS
ABERDEEN       CLEAR     -1  -4  87 SW9       29.62F WCI -16
MOBRIDGE       CLEAR      9   3  77 CALM      29.60R
BUFFALO          N/A     14   5  67 W12       29.59R WCI   0
RAPID CITY     PTCLDY    12   2  64 S6        29.70S WCI   3
GLASGOW        CLEAR     13   9  84 W9        29.66S WCI   1
SIDNEY         CLOUDY    24  19  81 W23G31    29.62S WCI   9
WOLF POINT     CLOUDY    21  16  81 W12       29.67R WCI   9
GLENDIVE       PTCLDY    17  14  88 W13       29.67R WCI   4
MILES CITY     PTCLDY     9   4  80 W6        29.73R WCI  -1
BAKER          CLOUDY    17  12  80 W17       29.67R WCI   1
$$

CITY           SKY/WX    TMP DP  RH WIND       PRES   REMARKS
BILLINGS       PTCLDY    24  17  74 SW12      29.73R WCI  13
GREAT FALLS    CLEAR     17   6  62 SW17      29.68F WCI   1
REGINA         MOCLDY    12   9  85 W13       29.54S WCI  -3
ESTEVAN        MOCLDY    16  12  86 W13       29.53R WCI   2
$$



ASUS43 KBIS 250710
RWRND
NORTH DAKOTA REGIONAL WEATHER ROUNDUP
NATIONAL WEATHER SERVICE EASTERN NORTH DAKOTA/GRAND FORKS ND
100 AM CST SUN FEB 25 2018

  NOTE: "FAIR" INDICATES FEW OR NO CLOUDS BELOW 12,000 FEET WITH NO
  SIGNIFICANT WEATHER AND/OR OBSTRUCTIONS TO VISIBILITY.

NDZ001>003-009>011-017-250800-
...NORTHWEST NORTH DAKOTA...

CITY           SKY/WX    TMP DP  RH WIND       PRES   REMARKS
WILLISTON      MOCLDY    23  17  78 W14       29.60R WCI  11
MINOT          CLOUDY    22  17  81 W14       29.51F WCI   9
MINOT AFB      MIX PCPN  21  18  86 W12         N/A  WCI   9
$$

NDZ018>021-031>035-040>046-250800-
...SOUTHWEST NORTH DAKOTA...

CITY           SKY/WX    TMP DP  RH WIND       PRES   REMARKS
BISMARCK       FAIR      14   9  80 W12       29.58S WCI   0
DICKINSON      CLOUDY    18  14  84 W17       29.58R WCI   3
GARRISON         N/A     20  17  88 W14       29.54S WCI   7
HETTINGER      FAIR      11   5  77 W16       29.63R WCI  -6
$$

NDZ004>008-012>016-024-026-027-054-250800-
...NORTHEAST NORTH DAKOTA...

CITY           SKY/WX    TMP DP  RH WIND       PRES   REMARKS
GRAND FORKS    CLOUDY    14  12  92 W6        29.53F WCI   5
GRAND FORKS AF CLOUDY    16  13  87 CALM      29.52F
DEVILS LAKE    MOCLDY     7   4  87 SW6       29.51F WCI  -3
$$

NDZ022-023-025-028>030-036>039-047>053-250800-
...SOUTHEAST NORTH DAKOTA...

CITY           SKY/WX    TMP DP  RH WIND       PRES   REMARKS
JAMESTOWN      FAIR       5   2  87 W3        29.52F
FARGO          CLOUDY    13  12  96 W12       29.54S WCI  -1
WAHPETON       CLOUDY    14  12  92 W12       29.56S WCI   0
$$




Office: FGF ASUS43 KFGF 250710 RWRFGF PRAIRIE TO PINES WEATHER ROUNDUP NATIONAL WEATHER SERVICE EASTERN NORTH DAKOTA/GRAND FORKS ND 100 AM CST SUN FEB 25 2018 **SATELLITE DATA USED TO AUGMENT SKY COVER AT AUTOMATED STATIONS** ***** WEATHER ACROSS EASTERN NORTH DAKOTA ***** CITY SKY/WX TMP DP RH WIND PRES REMARKS GRAND FORKS CLOUDY 14 12 92 W6 29.53F WCI 5 GRAND FRKS AFB CLOUDY 16 13 87 CALM 29.52F GRAND FRKS NWS N/A 13 12 94 W9 29.51F WCI 1 DEVILS LAKE MOCLDY 7 4 87 SW6 29.51F WCI -3 FARGO CLOUDY 13 12 96 W12 29.54S WCI -1 WAHPETON ARPT CLOUDY 14 12 92 W12 29.56S WCI 0 $$ ***** WEATHER ACROSS CENTRAL AND WESTERN NORTH DAKOTA ***** CITY SKY/WX TMP DP RH WIND PRES REMARKS BISMARCK FAIR 14 9 80 W12 29.58S WCI 0 MINOT CLOUDY 22 17 81 W14 29.51F WCI 9 JAMESTOWN FAIR 5 2 87 W3 29.52F MINOT AFB MIX PCPN 21 18 86 W12 N/A WCI 9 GARRISON N/A 20 17 88 W14 29.54S WCI 7 WILLISTON MOCLDY 23 17 78 W14 29.60R WCI 11 DICKINSON CLOUDY 18 14 84 W17 29.58R WCI 3 HETTINGER FAIR 11 5 77 W16 29.63R WCI -6 $$ ***** OTHER AIRPORT OBSERVATIONS IN OUR AREA ***** CITY SKY/WX TMP DP RH WIND PRES REMARKS WALHALLA FLURRIES 16 16 100 SW5 29.52F WCI 9 GRAFTON AIRPOR NOT AVBL VALLEY CITY AR NOT AVBL CANDO PTSUNNY 5 5 100 W8 29.53S FOG WCI -8 CAVALIER APRT N/A 16 16 100 S5 29.53F WCI 9 GWINNER N/A 9 7 92 W13 29.56S WCI -7 SHEYENNE NWR N/A 16 16 99 W7 29.95S WCI 6 ROLLA FAIR 3 1 92 SW6 29.48F WCI -8 ***** THE ABOVE OBSERVATIONS ARE NON NWS ARE NOT QUALITY CONTROLLED AND MAY MIS-REPORT RAIN FOR SNOW... $$ ***** WEATHER ACROSS NORTHERN MINNESOTA ***** CITY SKY/WX TMP DP RH WIND PRES REMARKS FLAG ISLAND LGT SNOW 19 18 93 N9 29.50F WCI 9 WARROAD LGT SNOW 19 16 86 N7 29.50F WCI 10 ROSEAU LGT SNOW 21 16 79 NE5 29.50F WCI 15 HALLOCK LGT SNOW 18 16 93 CALM 29.52F THF RVR FALLS FLURRIES 18 16 92 N5 29.50F WCI 11 BAUDETTE LGT SNOW 21 19 92 N9 29.46F VSB 1 WCI 11 WASKISH LGT SNOW 21 21 100 N3 29.44F CROOKSTON FAIR 16 16 100 CALM 29.52F STEPHEN NDAWN N/A 16 12 86 CALM N/A GREENBUSH NDAW N/A 16 12 86 N1 N/A $$ ***** WEATHER ACROSS CENTRAL AND WEST MINNESOTA ***** CITY SKY/WX TMP DP RH WIND PRES REMARKS FOSSTON CLOUDY 16 14 93 NW5 29.48F WCI 9 BEMIDJI FLURRIES 19 17 93 W6 29.43F WCI 10 PARK RAPIDS CLOUDY 19 15 84 NW7 29.42F WCI 10 ELBOW LAKE CLOUDY 13 11 94 NW13 29.53S WCI -2 WADENA MIX PCPN 18 16 93 W5 29.45S WCI 11 DETROIT LAKES CLOUDY 18 18 100 NW6 29.48F WCI 9 MOORHEAD CLOUDY 12 10 92 W8 29.54S WCI 1 FERGUS FALLS CLOUDY 9 7 92 W12 29.54R FOG WCI -6 MORRIS MN FAIR 9 7 92 W13 29.55R WCI -7 STAPLES CLOUDY 18 18 100 W8 29.44F WCI 7 $$ ***** WEATHER ELSEWHERE ACROSS MINNESOTA ***** CITY SKY/WX TMP DP RH WIND PRES REMARKS DULUTH LGT SNOW 28 25 88 E15 29.32F VSB 3/4 WCI 16 INTRNTL FALLS LGT SNOW 23 21 92 NE7 29.43F VSB 1 WCI 15 ELY LGT SNOW 25 25 100 E3 29.36F CLOQUET LGT SNOW 27 25 93 E5 29.34F WCI 21 WHEATON FAIR 12 10 92 W5 29.59S WCI 4 BRAINERD CLOUDY 22 17 81 W9 29.41F WCI 12 HIBBING LGT SNOW 23 21 92 N6 29.36F VSB 1 WCI 16 ALEXANDRIA CLOUDY 18 16 92 W9 29.48S WCI 7 SAINT CLOUD LGT SNOW 23 20 88 W13 29.45S FOG WCI 11 MINNEAPOLIS CLOUDY 21 19 92 W15G21 29.50R WCI 8 $$ ***** WEATHER ACROSS SOUTH DAKOTA ***** CITY SKY/WX TMP DP RH WIND PRES REMARKS SIOUX FALLS FAIR 12 8 84 W8 29.70R WCI 0 BROOKINGS CLOUDY 13 10 88 W18 29.63S WCI -4 WATERTOWN CLOUDY 14 12 92 W20 29.58S WCI -3 HURON FAIR 9 4 80 SW7 29.67F WCI -2 SISSETON N/A 19 15 84 W17 29.56S WCI 4 ABERDEEN FAIR -1 -4 87 SW9 29.62F WCI -16 MITCHELL FAIR 11 5 77 W12 29.72F WCI -3 PIERRE FAIR 18 10 71 W18G29 29.67F WCI 2 MOBRIDGE FAIR 9 3 77 CALM 29.60R RAPID CITY FAIR 12 2 64 S6 29.70S WCI 3 $$ ***** SOME WEATHER IN NEARBY STATES ***** CITY SKY/WX TMP DP RH WIND PRES REMARKS GLASGOW MT FAIR 13 9 84 W9 29.66S WCI 1 GREAT FALLS MT FAIR 17 6 62 SW17 29.68F WCI 1 CHEYENNE WY FAIR 20 4 50 W18 29.77F WCI 5 SCOTTSBLUFF NE FAIR 29 13 51 W10 29.81R WCI 20 OMAHA NE FAIR 26 19 74 W14 29.86R WCI 14 DES MOINES IA CLOUDY 31 27 85 W20 29.76R WCI 19 DAVENPORT IA CLOUDY 34 28 79 W25G35 29.70R WCI 21 CHICAGO IL CLOUDY 46 42 86 W24G35 29.49R EAU CLAIRE WI CLOUDY 31 29 92 SW14G23 29.40S WCI 21 LA CROSSE WI CLOUDY 31 25 78 W15G24 29.52R WCI 20 $$ ***** SOME NATIONAL WEATHER ***** CITY SKY/WX TMP DP RH WIND PRES REMARKS LA GUARDIA NY CLOUDY 43 38 82 NE10 30.18F RALEIGH NC FAIR 65 59 81 SW10 30.07F ATLANTA GA FAIR 68 61 78 SW12G22 30.06F NEW ORLEANS LA MOCLDY 73 71 93 S6 30.04S OKLAHOMA CITY FAIR 33 31 92 SE6 30.01S ALBUQUERQUE NM FAIR 33 10 38 NE6 30.00F SALT LAKE CITY MOCLDY 28 20 71 SE7 30.03R WCI 21 LOS ANGELES CA FAIR 50 37 61 E5 30.19S BOISE ID FAIR 23 19 85 W3 30.13R SEATTLE WA CLOUDY 41 33 73 S18G26 30.09F $$ *** WEATHER ACROSS MANITOBA...SASKATCHEWAN AND ONTARIO *** ***ONTARIO*** CITY SKY/WX TMP DP RH WIND PRES REMARKS GERALDTON CLOUDY 19 16 86 NE6 29.62F WCI 11 THUNDER BAY SNOW 27 27 100 E16 29.49F VSB 3/8 WCI 14 SIOUX LOOKOUT LGT SNOW 23 14 68 E7 29.54F WCI 15 TORONTO LGT RAIN 34 28 80 E18G31 29.91F WCI 23 BIG TROUT LK PTCLDY 16 7 67 S5 29.60F WCI 9 PICKLE LAKE NOT AVBL DRYDEN LGT SNOW 21 19 93 NE8 29.50F VSB 1 WCI 12 KENORA FLURRIES 21 10 63 N5 29.50F WCI 15 $$ *** MANITOBA*** CITY SKY/WX TMP DP RH WIND PRES REMARKS BRANDON FOG -6 -11 77 NW8 29.50S VSB 1/8 WCI -21 DAUPHIN MOCLDY 18 10 73 W9 29.48F WCI 6 ISLAND LAKE PTCLDY 18 12 79 CALM 29.53 PILOT MOUND N/A 16 14 93 W6 N/A WCI 7 THE PAS CLOUDY 14 10 85 NW7 29.49R WCI 4 THOMPSON FLURRIES 7 3 85 N2 29.50S WINNIPEG LGT SNOW 18 16 93 S7 29.53F WCI 8 LYNN LAKE CLOUDY 3 1 92 N5 29.52S WCI -6 CHURCHILL PTCLDY 0 -6 78 NW9 29.60R WCI -16 GILLAM FLURRIES 9 5 85 NW2 29.52S $$ ***SASKATCHEWAN*** CITY SKY/WX TMP DP RH WIND PRES REMARKS ESTEVAN MOCLDY 16 12 86 W13 29.53R WCI 2 KINDERSLEY PTCLDY 5 1 85 SW7 29.56F WCI -7 LLOYDMINSTER PTCLDY 9 5 85 SW8 29.50F WCI -4 PRINCE ALBERT FLURRIES 16 7 67 NW8 29.57S WCI 5 REGINA MOCLDY 12 9 85 W13 29.54S WCI -3 YORKTON CLOUDY 16 14 93 W10 29.47S WCI 3 N. BATTLEFORD CLEAR 10 7 85 CALM 29.56F LA RONGE FLURRIES 9 5 85 NW6 29.55S WCI -1 SASKATOON FLURRIES 21 16 79 NE5 29.57S WCI 15 SWIFT CURRENT NOT AVBL $$ NOTE: THESE ARE AUTOMATED STATIONS WITH LIMITED QUALITY CONTROL "FAIR" INDICATES FEW OR NO CLOUDS BELOW 12,000 FEET WITH NO SIGNIFICANT WEATHER AND/OR OBSTRUCTIONS TO VISIBILITY. SKY/WX - SKY CONDITION AND SIGNIFICANT WEATHER. TMP - AIR TEMPERATURE. DP - DEWPOINT TEMPERATURE. RH - RELATIVE HUMIDITY. PRES - PRESSURE. HX - HEAT INDEX. WCI - WIND CHILL INDEX. $